Regional Weather Roundup
Issued by NWS

Home | Current Version | Previous Version | Graphics & Text | Print | Product List | Glossary On
Versions: 1 2 3 4 5 6 7 8 9 10 11 12 13 14 15 16 17 18 19 20 21 22 23 24 25 26 27 28 29 30 31 32 33 34 35 36 37 38 39 40 41 42 43 44 45 46 47 48 49 50
056
ASUS43 KFSD 010510
RWRSD

WEATHER ROUNDUP FOR SOUTH DAKOTA
NATIONAL WEATHER SERVICE SIOUX FALLS SD
1200 AM CDT SAT OCT 01 2016

NOTE: "FAIR" INDICATES FEW OR NO CLOUDS BELOW 12,000 FEET WITH NO
SIGNIFICANT WEATHER AND/OR OBSTRUCTIONS TO VISIBILITY.


SDZ001>005-009-010-012>017-010600-
NORTHWEST AND NORTH CENTRAL SOUTH DAKOTA

CITY           SKY/WX    TMP DP  RH WIND       PRES   REMARKS
BUFFALO          N/A     57  46  66 CALM      29.95S
FAITH            N/A     62  47  57 SE17      30.00S
MOBRIDGE       PTCLDY    63  43  48 SE17      30.04S
$$

SDZ012>016-024>037-041>051-057-063-072>074-010600-
SOUTHWEST AND SOUTH CENTRAL SOUTH DAKOTA

CITY           SKY/WX    TMP DP  RH WIND       PRES   REMARKS
RAPID CTY ARPT CLEAR     58  48  69 SE6       30.03S
PIERRE         PTCLDY    61  45  55 SE14      30.06S
CUSTER         CLEAR     52  42  69 CALM      30.16S
ELLSWORTH AFB  CLEAR     61  50  67 S9        30.02S
PHILIP         CLOUDY    61  48  62 SE6       30.02S
PINE RIDGE     MOCLDY    65  48  54 S14G26    30.06F
WINNER         FAIR      60  45  57 SE12      30.11S
$$

SDZ004>011-016>023-039-040-010600-
NORTHEAST SOUTH DAKOTA

CITY           SKY/WX    TMP DP  RH WIND       PRES   REMARKS
ABERDEEN       PTCLDY    55  45  68 SE7       30.14S
WATERTOWN      PTCLDY    57  45  64 SE7       30.18S
BROOKINGS      PTCLDY    54  47  77 SE9       30.18S
SISSETON         N/A     46  43  89 CALM      30.18S
$$

SDZ017-020-022-023-036>040-048>070-010600-
SOUTHEAST SOUTH DAKOTA

CITY           SKY/WX    TMP DP  RH WIND       PRES   REMARKS
SIOUX FALLS    CLOUDY    50  45  83 NE5       30.18S
HURON          CLOUDY    53  45  74 SE7       30.14S
CHAMBERLAIN    MOCLDY    56  48  74 SE9       30.12S
MITCHELL       PTCLDY    52  45  77 SE6       30.15F
YANKTON        PTCLDY    54  46  76 CALM      30.15S
$$

ABBREVIATIONS USED IN REMARKS
   TC - TEMPERATURE IN CELSIUS
  WCI - WIND CHILL INDEX
   HX - HEAT INDEX
  VSB - VISIBILITY





USA.gov is the U.S. government's official web portal to all federal, state and local government web resources and services.